EW2099 Weather Reports


Display with metric or nautical units.
time (UTC)temp
F
wind
direction
speed
MPH
gust
MPH
rain 1hr
in
rain 24hr
in
rain mn
in
humidity
%
barometer
mb
20260507020103 51 81 1.0 5.0 0.00 0.00 0.00 63 1013.8
20260507014556 52 62 3.0 8.0 0.00 0.00 0.00 62 1013.6
20260507013053 52 37 3.0 10.0 0.00 0.00 0.00 62 1013.6
20260507011551 52 37 2.0 6.0 0.00 0.00 0.00 64 1013.5
20260507010049 52 64 0.0 4.0 0.00 0.00 0.00 64 1013.5
20260507004548 52 48 0.0 3.0 0.00 0.00 0.00 64 1013.4
20260507003054 52 29 0.0 3.0 0.00 0.00 0.00 64 1013.3
20260507001609 52 32 0.0 2.0 0.00 0.00 0.00 64 1013.4
20260507000046 53 11 0.0 2.0 0.00 0.00 0.00 64 1013.4
20260506234551 53 65 1.0 5.0 0.00 0.00 0.00 64 1013.3
20260506233043 53 30 3.0 8.0 0.00 0.00 0.00 66 1013.2
20260506231540 53 49 4.0 11.0 0.00 0.00 0.00 65 1013.2
20260506230050 53 37 4.0 10.0 0.00 0.00 0.00 64 1013.2
20260506224532 53 34 2.0 9.0 0.00 0.00 0.00 66 1013.2
20260506223033 53 10 4.0 10.0 0.00 0.00 0.00 66 1013.2
20260506221530 53 38 4.0 11.0 0.00 0.00 0.00 65 1013.1
20260506220033 53 350 4.0 11.0 0.00 0.00 0.00 66 1013.1
20260506214526 53 44 4.0 9.0 0.00 0.00 0.00 66 1013.1
20260506213025 52 34 3.0 7.0 0.00 0.00 0.00 65 1013.1
20260506211524 52 63 3.0 8.0 0.00 0.00 0.00 67 1013.1
20260506210044 52 12 2.0 10.0 0.00 0.00 0.00 67 1012.9
20260506204523 52 40 3.0 8.0 0.00 0.00 0.00 67 1012.9
20260506203022 52 56 4.0 11.0 0.00 0.00 0.00 67 1012.9
20260506201523 52 32 3.0 7.0 0.00 0.00 0.00 67 1012.8
20260506200021 52 77 3.0 10.0 0.00 0.00 0.00 67 1012.7
20260506194520 52 29 4.0 11.0 0.00 0.00 0.00 67 1012.6
20260506193029 52 21 4.0 9.0 0.00 0.00 0.00 67 1012.5
20260506191517 52 4 3.0 13.0 0.00 0.00 0.00 67 1012.3
20260506190015 52 37 4.0 12.0 0.00 0.00 0.00 66 1012.3
20260506184514 52 24 6.0 12.0 0.00 0.00 0.00 66 1012.2
20260506183013 52 19 2.0 14.0 0.00 0.00 0.00 66 1012.1
20260506181512 53 307 4.0 12.0 0.00 0.00 0.00 65 1012.1
20260506180010 53 328 4.0 16.0 0.00 0.00 0.00 65 1011.8
20260506174508 53 352 4.0 12.0 0.00 0.00 0.00 65 1011.6
20260506173007 53 14 5.0 13.0 0.00 0.00 0.00 64 1011.5
20260506171507 54 42 5.0 12.0 0.00 0.00 0.00 64 1011.5
20260506170005 54 30 6.0 14.0 0.00 0.00 0.00 63 1011.3
20260506164517 54 335 7.0 13.0 0.00 0.00 0.00 63 1011.3
20260506163009 55 50 3.0 12.0 0.00 0.00 0.00 63 1011.3
20260506161505 54 354 6.0 12.0 0.00 0.00 0.00 62 1011.3
20260506160003 55 41 7.0 14.0 0.00 0.00 0.00 62 1011.3
20260506154502 55 55 6.0 17.0 0.00 0.00 0.00 62 1011.4
20260506153001 54 77 6.0 14.0 0.00 0.00 0.00 62 1011.3
20260506151605 55 27 7.0 14.0 0.00 0.00 0.00 60 1011.3
20260506150108 55 37 7.0 16.0 0.00 0.00 0.00 60 1011.3
20260506144600 55 31 8.0 15.0 0.00 0.00 0.00 60 1011.2
20260506143059 56 58 4.0 14.0 0.00 0.00 0.00 62 1011.1
20260506141556 55 51 4.0 15.0 0.00 0.00 0.00 62 1011.1
20260506140056 55 329 6.0 16.0 0.00 0.00 0.00 62 1011.1
20260506134555 56 21 5.0 15.0 0.00 0.00 0.00 61 1011.1
20260506133108 56 4 6.0 18.0 0.00 0.00 0.00 60 1011.1
20260506131611 56 345 4.0 14.0 0.00 0.00 0.00 62 1011.1
20260506130052 56 346 5.0 13.0 0.00 0.00 0.00 61 1011.0
20260506124552 55 23 7.0 15.0 0.00 0.00 0.00 60 1010.9
20260506123050 56 333 6.0 14.0 0.00 0.00 0.00 61 1010.8
20260506121555 55 39 10.0 16.0 0.00 0.00 0.00 61 1010.8
20260506120058 55 34 6.0 14.0 0.00 0.00 0.00 63 1010.7
20260506114545 55 66 5.0 14.0 0.00 0.00 0.00 63 1010.7
20260506113044 54 321 4.0 14.0 0.00 0.00 0.00 64 1010.7
20260506111545 54 31 6.0 15.0 0.00 0.00 0.00 64 1010.6
20260506110041 53 19 7.0 14.0 0.00 0.00 0.00 64 1010.6
20260506104548 53 30 6.0 13.0 0.00 0.00 0.00 63 1010.7
20260506103043 52 32 7.0 17.0 0.00 0.00 0.00 63 1010.7
20260506101534 52 47 5.0 11.0 0.00 0.00 0.00 64 1010.6
20260506100034 52 62 4.0 16.0 0.00 0.00 0.00 63 1010.5
20260506094534 52 32 6.0 13.0 0.00 0.00 0.00 64 1010.4
20260506093033 52 337 4.0 14.0 0.00 0.00 0.00 64 1010.4
20260506091532 52 77 6.0 13.0 0.00 0.00 0.00 63 1010.4
20260506090032 52 32 7.0 14.0 0.00 0.00 0.00 63 1010.2
20260506084607 52 43 5.0 12.0 0.00 0.00 0.00 63 1010.2
20260506083030 52 49 7.0 13.0 0.00 0.00 0.00 64 1010.1
20260506081538 52 36 4.0 16.0 0.00 0.00 0.00 63 1009.9
20260506073027 52 43 5.0 13.0 0.00 0.00 0.00 62 1009.8
20260506071526 52 65 7.0 14.0 0.00 0.00 0.00 62 1009.8
20260506061520 51 46 4.0 14.0 0.00 0.00 0.00 64 1009.6
20260506044515 50 6 6.0 13.0 0.00 0.00 0.00 64 1009.5
20260506043013 50 4 6.0 17.0 0.00 0.00 0.00 64 1009.6
20260506041512 50 353 3.0 16.0 0.00 0.00 0.00 64 1009.6
20260506040010 50 51 9.0 18.0 0.00 0.00 0.00 63 1009.6
20260506034509 50 330 6.0 18.0 0.00 0.00 0.00 63 1009.7
20260506033007 50 28 4.0 16.0 0.00 0.00 0.00 64 1009.8
20260506031505 50 18 6.0 11.0 0.00 0.00 0.00 63 1009.8
20260506030002 50 75 8.0 16.0 0.00 0.00 0.00 64 1009.9
20260506024501 50 11 7.0 16.0 0.00 0.00 0.00 64 1009.9
20260506023109 50 15 4.0 14.0 0.00 0.00 0.00 64 1009.9
20260506021617 50 30 3.0 17.0 0.00 0.00 0.00 65 1010.0